< < Back
Terminal Aerodrome Forecast


Current Version              Previous Versions:   1  2  3  4  5  6  7  8  9  

Terminal Aerodrome Forecast

346
FTUS42 KFFC 010326 AAA
TAFCSG
TAF AMD
KCSG 010326Z 0103/0124 VRB03KT P6SM SCT050 BKN080
     FM010900 00000KT P6SM BKN025
     FM011500 33003KT P6SM BKN035
     FM011800 29004KT P6SM SCT050=

Latest METAR

995
SAUS70 KWBC 020400
MTRCSG
METAR KCSG 020351Z AUTO 00000KT 10SM CLR 18/13 A3009 RMK AO2 SLP184
T01780128


USA.gov is the U.S. government's official web portal to all federal, state and local government web resources and services.